ASTRA 1L

Last updated on Wed Sep 09 2026 00:02:58 GMT+0000 (Coordinated Universal Time)

1 31306U 07016A 26251.36898617 -.00000205 00000+0 00000+0 0 9997 2 31306 1.5301 80.7437 0004844 88.9424 286.0954 1.00272130 45828
UTC large
Height (km)
Speed (km/s)
/
Latitude / Longitude
Inclination (degrees)
Orbital Period (minutes)
Azimuth
Elevation
Range (km)
Doppler Factor

Next 0 passes for location: London (51.5072 / 0.1276)

No passes found over London.
ASTRA 1L